TimeCST,TemperatureF,Dew PointF,Humidity,Sea Level PressureIn,VisibilityMPH,Wind Direction,Wind SpeedMPH,Gust SpeedMPH,PrecipitationIn,Events,Conditions,WindDirDegrees,DateUTC
12:15 AM,13.1,5.0,70,30.06,10.0,SSW,13.8,-,N/A,,Clear,200,2013-01-25 06:15:00
12:35 AM,13.1,4.6,69,30.05,10.0,South,11.5,-,N/A,,Scattered Clouds,190,2013-01-25 06:35:00
12:55 AM,13.1,5.0,70,30.05,10.0,SSW,11.5,-,N/A,,Mostly Cloudy,200,2013-01-25 06:55:00
1:14 AM,13.5,5.0,69,30.05,10.0,SSW,10.4,-,N/A,,Mostly Cloudy,210,2013-01-25 07:14:00
1:35 AM,12.4,4.8,72,30.03,10.0,SW,15.0,-,N/A,,Scattered Clouds,220,2013-01-25 07:35:00
1:55 AM,12.0,5.0,73,30.01,10.0,SSW,17.3,-,N/A,,Clear,210,2013-01-25 07:55:00
2:15 AM,12.0,5.0,73,30.02,10.0,SW,17.3,-,N/A,,Clear,220,2013-01-25 08:15:00
2:35 AM,11.7,5.0,75,30.01,10.0,SW,16.1,-,N/A,,Clear,220,2013-01-25 08:35:00
2:55 AM,11.3,5.0,76,30.02,10.0,SW,16.1,-,N/A,,Clear,220,2013-01-25 08:55:00
3:15 AM,10.9,5.0,77,30.01,10.0,SW,13.8,-,N/A,,Clear,220,2013-01-25 09:15:00
3:35 AM,10.8,4.8,77,30.00,10.0,SW,11.5,-,N/A,,Clear,230,2013-01-25 09:35:00
3:55 AM,10.4,4.8,78,30.00,10.0,SW,10.4,-,N/A,,Clear,220,2013-01-25 09:55:00
4:15 AM,10.4,5.0,79,30.00,10.0,SW,10.4,-,N/A,,Clear,230,2013-01-25 10:15:00
4:35 AM,10.6,5.2,79,30.00,10.0,West,5.8,-,N/A,,Scattered Clouds,260,2013-01-25 10:35:00
4:54 AM,12.2,5.9,76,30.00,10.0,WSW,10.4,-,N/A,,Overcast,250,2013-01-25 10:54:00
5:15 AM,12.6,6.1,75,29.98,10.0,WSW,11.5,-,N/A,,Overcast,250,2013-01-25 11:15:00
5:35 AM,12.7,6.8,77,29.99,10.0,WSW,11.5,-,N/A,,Overcast,250,2013-01-25 11:35:00
5:55 AM,13.5,7.5,77,29.98,10.0,West,10.4,-,N/A,,Overcast,260,2013-01-25 11:55:00
6:15 AM,14.0,8.2,78,29.98,10.0,West,15.0,-,N/A,,Overcast,270,2013-01-25 12:15:00
6:35 AM,14.9,9.5,79,29.99,10.0,West,16.1,-,N/A,,Overcast,280,2013-01-25 12:35:00
6:55 AM,16.2,12.0,84,30.00,10.0,WNW,12.7,-,N/A,,Overcast,290,2013-01-25 12:55:00
7:15 AM,17.6,13.8,85,30.00,10.0,WNW,16.1,20.7,N/A,,Overcast,290,2013-01-25 13:15:00
7:35 AM,18.1,14.2,84,30.00,10.0,WNW,15.0,-,N/A,,Overcast,300,2013-01-25 13:35:00
7:55 AM,18.5,14.7,85,30.00,10.0,WNW,15.0,-,N/A,,Overcast,290,2013-01-25 13:55:00
8:15 AM,17.8,13.8,84,30.02,10.0,West,10.4,-,N/A,,Overcast,280,2013-01-25 14:15:00
8:34 AM,18.7,14.9,85,30.02,10.0,WNW,15.0,-,N/A,,Overcast,290,2013-01-25 14:34:00
8:55 AM,19.9,16.2,85,30.02,10.0,WNW,19.6,27.6,N/A,,Overcast,290,2013-01-25 14:55:00
9:15 AM,21.2,17.2,85,30.02,10.0,WNW,25.3,31.1,N/A,,Overcast,300,2013-01-25 15:15:00
9:35 AM,22.3,17.8,83,30.03,10.0,WNW,21.9,32.2,N/A,,Overcast,300,2013-01-25 15:35:00
9:55 AM,22.6,18.1,83,30.04,10.0,WNW,20.7,31.1,N/A,,Overcast,300,2013-01-25 15:55:00
10:15 AM,22.6,18.0,82,30.05,10.0,WNW,24.2,27.6,N/A,,Overcast,300,2013-01-25 16:15:00
10:35 AM,22.8,17.4,80,30.05,7.0,NW,21.9,28.8,N/A,,Overcast,310,2013-01-25 16:35:00
10:55 AM,22.6,16.9,79,30.07,5.0,NW,18.4,27.6,N/A,,Haze,320,2013-01-25 16:55:00
11:15 AM,22.3,16.2,77,30.08,7.0,NW,23.0,29.9,N/A,,Mostly Cloudy,310,2013-01-25 17:15:00
11:35 AM,21.7,15.3,76,30.08,7.0,NW,23.0,26.5,N/A,,Overcast,320,2013-01-25 17:35:00
11:55 AM,22.3,12.7,67,30.09,10.0,NW,24.2,32.2,N/A,,Mostly Cloudy,310,2013-01-25 17:55:00
12:14 PM,21.4,10.0,62,30.10,10.0,NW,27.6,32.2,N/A,,Scattered Clouds,310,2013-01-25 18:14:00
12:35 PM,19.9,7.5,59,30.10,10.0,NW,25.3,32.2,N/A,,Clear,310,2013-01-25 18:35:00
1:15 PM,18.0,3.6,53,30.12,10.0,NW,24.2,27.6,N/A,,Clear,310,2013-01-25 19:15:00
1:35 PM,17.1,2.7,53,30.12,10.0,NW,20.7,28.8,N/A,,Clear,320,2013-01-25 19:35:00
1:55 PM,16.0,1.4,53,30.13,10.0,NW,19.6,25.3,N/A,,Clear,320,2013-01-25 19:55:00
2:15 PM,15.8,1.8,54,30.12,10.0,NW,19.6,25.3,N/A,,Clear,320,2013-01-25 20:15:00
2:35 PM,15.4,0.9,53,30.12,10.0,NW,17.3,23.0,N/A,,Clear,320,2013-01-25 20:35:00
2:55 PM,14.9,1.4,55,30.13,10.0,NW,19.6,23.0,N/A,,Clear,320,2013-01-25 20:55:00
3:15 PM,14.0,1.6,58,30.14,10.0,NW,13.8,21.9,N/A,,Clear,320,2013-01-25 21:15:00
3:55 PM,13.1,-0.2,55,30.14,10.0,NW,16.1,21.9,N/A,,Clear,320,2013-01-25 21:55:00
4:15 PM,12.2,-0.9,56,30.15,10.0,NW,13.8,20.7,N/A,,Clear,320,2013-01-25 22:15:00
4:35 PM,11.3,-1.3,57,30.16,10.0,NW,18.4,21.9,N/A,,Clear,310,2013-01-25 22:35:00
4:54 PM,10.4,-1.5,59,30.17,10.0,NW,12.7,-,N/A,,Clear,320,2013-01-25 22:54:00
5:15 PM,9.5,-0.9,63,30.18,10.0,NNW,12.7,-,N/A,,Clear,330,2013-01-25 23:15:00
5:35 PM,8.8,-0.6,66,30.18,10.0,NNW,10.4,-,N/A,,Clear,330,2013-01-25 23:35:00
5:55 PM,8.4,-0.2,68,30.19,10.0,North,10.4,-,N/A,,Clear,350,2013-01-25 23:55:00
6:15 PM,7.3,0.5,74,30.19,10.0,North,9.2,-,N/A,,Clear,350,2013-01-26 00:15:00
6:35 PM,6.1,-0.2,75,30.20,10.0,North,11.5,-,N/A,,Clear,350,2013-01-26 00:35:00
6:55 PM,5.7,-0.9,74,30.21,10.0,North,10.4,-,N/A,,Clear,350,2013-01-26 00:55:00
7:15 PM,5.2,-1.1,75,30.21,10.0,North,12.7,-,N/A,,Clear,360,2013-01-26 01:15:00
7:57 PM,4.3,-2.4,74,30.23,10.0,NNW,10.4,-,N/A,,Clear,340,2013-01-26 01:57:00
8:15 PM,4.1,-2.4,75,30.23,10.0,NNW,6.9,-,N/A,,Clear,340,2013-01-26 02:15:00
8:34 PM,3.9,-2.9,73,30.24,10.0,NNW,9.2,-,N/A,,Clear,330,2013-01-26 02:34:00
8:55 PM,3.6,-3.1,74,30.24,10.0,NNW,9.2,-,N/A,,Clear,340,2013-01-26 02:55:00
9:15 PM,3.2,-3.8,73,30.25,10.0,NNW,9.2,-,N/A,,Clear,340,2013-01-26 03:15:00
9:34 PM,2.8,-3.6,74,30.24,10.0,NNW,6.9,-,N/A,,Clear,340,2013-01-26 03:34:00
9:55 PM,2.7,-3.5,76,30.25,10.0,NNW,6.9,-,N/A,,Clear,340,2013-01-26 03:55:00
10:15 PM,2.3,-3.6,76,30.25,10.0,NNW,5.8,-,N/A,,Clear,340,2013-01-26 04:15:00
10:55 PM,1.9,-3.1,79,30.25,10.0,North,3.5,-,N/A,,Clear,10,2013-01-26 04:55:00
11:15 PM,1.9,-3.3,79,30.25,10.0,Calm,Calm,-,N/A,,Clear,0,2013-01-26 05:15:00
11:35 PM,1.8,-3.1,80,30.24,10.0,NNE,3.5,-,N/A,,Clear,20,2013-01-26 05:35:00
11:55 PM,1.8,-3.1,80,30.25,10.0,Calm,Calm,-,N/A,,Clear,0,2013-01-26 05:55:00